Track NAVSTAR 34 (USA 94) now! NAVSTAR 34 (USA 94) is classified as:
1 22779U 93054A 24287.40251750 -.00000003 00000-0 00000+0 0 9998 2 22779 53.5085 239.9605 0051479 245.0029 194.5392 1.89129596224514